GPS BIIF-8

Last updated on Sat Jun 27 2026 00:02:55 GMT+0000 (Coordinated Universal Time)

1 40294U 14068A 26176.89738811 -.00000085 00000+0 00000+0 0 9997 2 40294 56.9936 30.6191 0067228 70.9208 289.8621 2.00576883 85389
UTC large
Height (km)
Speed (km/s)
/
Latitude / Longitude
Inclination (degrees)
Orbital Period (minutes)
Azimuth
Elevation
Range (km)
Doppler Factor

Next 0 passes for location: London (51.5072 / 0.1276)

No passes found over London.
GPS BIIF-8